Location: *
(37.5724°S, 58.0067°E)
Time: 07:37:30
(UTC+00:00)

Cosmos 1933 Rocket - Pass Details

Date: 31 January 2021
Orbit: 607 x 630 km, 82.5° (Epoch: 04 March)

Event Time Altitude Azimuth Distance (km) Brightness Sun altitude
Rises 19:31:24 0° 207° (SSW) 2,954 8.0 -34.0°
Reaches altitude 10° 19:34:22 10° 227° (SW) 2,032 6.8 -34.2°
Enters shadow 19:35:38 14° 242° (WSW) 1,768 6.3 -34.2°
